| time (UTC) | temp F | wind direction | speed MPH | gust MPH | rain 1hr in | rain 24hr in | rain mn in | humidity % | barometer mb |
| 20260901041822 | 85 | 204 | 1.0 | 3.0 | 0.00 | 0.00 | 0.00 | 50 | 1008.7 |
| 20260901040821 | 85 | 208 | 1.0 | 2.0 | 0.00 | 0.00 | 0.00 | 49 | 1008.7 |
| 20260901035822 | 86 | 212 | 1.0 | 3.0 | 0.00 | 0.00 | 0.00 | 48 | 1008.8 |
| 20260901034823 | 86 | 194 | 2.0 | 2.0 | 0.00 | 0.00 | 0.00 | 48 | 1008.6 |
| 20260901033822 | 87 | 188 | 1.0 | 3.0 | 0.00 | 0.00 | 0.00 | 47 | 1008.4 |
| 20260901032823 | 87 | 190 | 2.0 | 2.0 | 0.00 | 0.00 | 0.00 | 47 | 1008.3 |
| 20260901031822 | 87 | 189 | 2.0 | 5.0 | 0.00 | 0.00 | 0.00 | 46 | 1008.2 |
| 20260901030823 | 88 | 194 | 3.0 | 3.0 | 0.00 | 0.00 | 0.00 | 46 | 1008.1 |
| 20260901025821 | 88 | 185 | 2.0 | 5.0 | 0.00 | 0.00 | 0.00 | 45 | 1008.2 |
| 20260901024823 | 89 | 204 | 2.0 | 3.0 | 0.00 | 0.00 | 0.00 | 45 | 1008.0 |
| 20260901023821 | 89 | 189 | 2.0 | 3.0 | 0.00 | 0.00 | 0.00 | 44 | 1007.8 |
| 20260901022822 | 90 | 187 | 3.0 | 6.0 | 0.00 | 0.00 | 0.00 | 43 | 1007.7 |
| 20260901021823 | 90 | 183 | 2.0 | 5.0 | 0.00 | 0.00 | 0.00 | 43 | 1007.4 |
| 20260901020822 | 90 | 202 | 3.0 | 3.0 | 0.00 | 0.00 | 0.00 | 42 | 1007.2 |
| 20260901015823 | 91 | 193 | 2.0 | 5.0 | 0.00 | 0.00 | 0.00 | 42 | 1007.4 |
| 20260901014822 | 91 | 188 | 2.0 | 6.0 | 0.00 | 0.00 | 0.00 | 41 | 1007.3 |
| 20260901013822 | 92 | 210 | 1.0 | 2.0 | 0.00 | 0.00 | 0.00 | 41 | 1007.1 |
| 20260901012823 | 93 | 197 | 2.0 | 3.0 | 0.00 | 0.00 | 0.00 | 40 | 1007.0 |
| 20260901011821 | 93 | 171 | 2.0 | 3.0 | 0.00 | 0.00 | 0.00 | 39 | 1006.9 |
| 20260901010822 | 94 | 196 | 1.0 | 3.0 | 0.00 | 0.00 | 0.00 | 39 | 1006.7 |
| 20260901005822 | 95 | 191 | 2.0 | 3.0 | 0.00 | 0.00 | 0.00 | 38 | 1006.8 |
| 20260901004822 | 96 | 176 | 2.0 | 3.0 | 0.00 | 0.00 | 0.00 | 37 | 1006.8 |
| 20260901003823 | 97 | 199 | 2.0 | 6.0 | 0.00 | 0.00 | 0.00 | 36 | 1006.8 |
| 20260901002821 | 97 | 188 | 1.0 | 3.0 | 0.00 | 0.00 | 0.00 | 35 | 1006.7 |
| 20260901001822 | 98 | 191 | 3.0 | 5.0 | 0.00 | 0.00 | 0.00 | 34 | 1006.7 |
| 20260901000821 | 99 | 183 | 3.0 | 6.0 | 0.00 | 0.00 | 0.00 | 33 | 1006.7 |
| 20260831235823 | 99 | 192 | 3.0 | 7.0 | 0.00 | 0.00 | 0.00 | 33 | 1006.7 |
| 20260831234822 | 100 | 192 | 5.0 | 9.0 | 0.00 | 0.00 | 0.00 | 32 | 1006.6 |
| 20260831233823 | 100 | 195 | 6.0 | 7.0 | 0.00 | 0.00 | 0.00 | 31 | 1006.6 |
| 20260831232822 | 100 | 185 | 6.0 | 9.0 | 0.00 | 0.00 | 0.00 | 31 | 1006.6 |
| 20260831231823 | 100 | 185 | 7.0 | 6.0 | 0.00 | 0.00 | 0.00 | 31 | 1006.6 |
| 20260831230822 | 100 | 193 | 6.0 | 9.0 | 0.00 | 0.00 | 0.00 | 30 | 1006.6 |
| 20260831225821 | 100 | 213 | 7.0 | 10.0 | 0.00 | 0.00 | 0.00 | 31 | 1006.5 |
| 20260831224822 | 101 | 190 | 7.0 | 13.0 | 0.00 | 0.00 | 0.00 | 30 | 1006.6 |
| 20260831223823 | 101 | 187 | 5.0 | 10.0 | 0.00 | 0.00 | 0.00 | 29 | 1006.6 |
| 20260831222822 | 101 | 199 | 6.0 | 10.0 | 0.00 | 0.00 | 0.00 | 29 | 1006.6 |
| 20260831221822 | 101 | 182 | 9.0 | 10.0 | 0.00 | 0.00 | 0.00 | 29 | 1006.7 |
| 20260831220821 | 101 | 186 | 7.0 | 12.0 | 0.00 | 0.00 | 0.00 | 30 | 1006.8 |
| 20260831215822 | 102 | 179 | 7.0 | 12.0 | 0.00 | 0.00 | 0.00 | 29 | 1006.7 |
| 20260831214822 | 102 | 188 | 6.0 | 9.0 | 0.00 | 0.00 | 0.00 | 29 | 1006.9 |
| 20260831213822 | 102 | 292 | 1.0 | 2.0 | 0.00 | 0.00 | 0.00 | 30 | 1006.8 |
| 20260831212823 | 102 | 259 | 5.0 | 7.0 | 0.00 | 0.00 | 0.00 | 28 | 1007.0 |
| 20260831211822 | 102 | 226 | 1.0 | 3.0 | 0.00 | 0.00 | 0.00 | 28 | 1007.0 |
| 20260831210823 | 102 | 215 | 2.0 | 5.0 | 0.00 | 0.00 | 0.00 | 29 | 1007.0 |
| 20260831205822 | 102 | 234 | 1.0 | 5.0 | 0.00 | 0.00 | 0.00 | 29 | 1006.9 |
| 20260831204821 | 102 | 280 | 5.0 | 7.0 | 0.00 | 0.00 | 0.00 | 29 | 1006.9 |
| 20260831203822 | 102 | 199 | 6.0 | 12.0 | 0.00 | 0.00 | 0.00 | 29 | 1007.0 |
| 20260831202822 | 102 | 183 | 10.0 | 15.0 | 0.00 | 0.00 | 0.00 | 28 | 1007.2 |
| 20260831201821 | 102 | 187 | 6.0 | 12.0 | 0.00 | 0.00 | 0.00 | 29 | 1007.4 |
| 20260831200822 | 102 | 186 | 9.0 | 14.0 | 0.00 | 0.00 | 0.00 | 29 | 1007.4 |
| 20260831195822 | 102 | 186 | 7.0 | 12.0 | 0.00 | 0.00 | 0.00 | 29 | 1007.4 |
| 20260831194821 | 102 | 255 | 1.0 | 6.0 | 0.00 | 0.00 | 0.00 | 32 | 1007.4 |
| 20260831193822 | 101 | 274 | 2.0 | 2.0 | 0.00 | 0.00 | 0.00 | 31 | 1007.5 |
| 20260831192821 | 102 | 175 | 8.0 | 12.0 | 0.00 | 0.00 | 0.00 | 31 | 1007.7 |
| 20260831191822 | 101 | 193 | 5.0 | 9.0 | 0.00 | 0.00 | 0.00 | 32 | 1007.8 |
| 20260831190821 | 101 | 221 | 1.0 | 1.0 | 0.00 | 0.00 | 0.00 | 33 | 1007.9 |
| 20260831185821 | 101 | 176 | 2.0 | 6.0 | 0.00 | 0.00 | 0.00 | 34 | 1007.8 |
| 20260831184822 | 100 | 184 | 13.0 | 15.0 | 0.00 | 0.00 | 0.00 | 33 | 1007.9 |
| 20260831183821 | 100 | 260 | 2.0 | 5.0 | 0.00 | 0.00 | 0.00 | 35 | 1007.9 |
| 20260831182823 | 101 | 190 | 10.0 | 14.0 | 0.00 | 0.00 | 0.00 | 34 | 1007.9 |
| 20260831181821 | 100 | 176 | 2.0 | 7.0 | 0.00 | 0.00 | 0.00 | 37 | 1008.0 |
| 20260831180822 | 100 | 237 | 3.0 | 3.0 | 0.00 | 0.00 | 0.00 | 35 | 1008.3 |
| 20260831175823 | 99 | 192 | 12.0 | 17.0 | 0.00 | 0.00 | 0.00 | 35 | 1008.4 |
| 20260831174822 | 98 | 199 | 6.0 | 6.0 | 0.00 | 0.00 | 0.00 | 38 | 1008.5 |
| 20260831173822 | 98 | 218 | 6.0 | 10.0 | 0.00 | 0.00 | 0.00 | 38 | 1008.7 |
| 20260831172822 | 97 | 184 | 3.0 | 3.0 | 0.00 | 0.00 | 0.00 | 40 | 1009.0 |
| 20260831171823 | 96 | 199 | 2.0 | 3.0 | 0.00 | 0.00 | 0.00 | 41 | 1009.1 |
| 20260831170821 | 96 | 264 | 1.0 | 3.0 | 0.00 | 0.00 | 0.00 | 40 | 1009.1 |
| 20260831165823 | 95 | 193 | 2.0 | 3.0 | 0.00 | 0.00 | 0.00 | 44 | 1009.1 |
| 20260831164822 | 94 | 191 | 6.0 | 10.0 | 0.00 | 0.00 | 0.00 | 43 | 1009.3 |
| 20260831163823 | 94 | 248 | 1.0 | 2.0 | 0.00 | 0.00 | 0.00 | 44 | 1009.5 |
| 20260831162822 | 93 | 231 | 1.0 | 3.0 | 0.00 | 0.00 | 0.00 | 44 | 1009.4 |
| 20260831161823 | 93 | 194 | 3.0 | 6.0 | 0.00 | 0.00 | 0.00 | 46 | 1009.5 |
| 20260831160822 | 92 | 288 | 0.0 | 2.0 | 0.00 | 0.00 | 0.00 | 45 | 1009.7 |
| 20260831155821 | 91 | 279 | 1.0 | 2.0 | 0.00 | 0.00 | 0.00 | 46 | 1009.8 |
| 20260831154822 | 91 | 240 | 1.0 | 3.0 | 0.00 | 0.00 | 0.00 | 46 | 1009.8 |
| 20260831153821 | 90 | 285 | 1.0 | 2.0 | 0.00 | 0.00 | 0.00 | 46 | 1009.8 |
| 20260831152821 | 90 | 285 | 1.0 | 2.0 | 0.00 | 0.00 | 0.00 | 47 | 1009.6 |
| 20260831151822 | 89 | 283 | 1.0 | 2.0 | 0.00 | 0.00 | 0.00 | 47 | 1009.6 |
| 20260831150821 | 88 | 328 | 1.0 | 1.0 | 0.00 | 0.00 | 0.00 | 48 | 1009.8 |
| 20260831145822 | 87 | 284 | 1.0 | 2.0 | 0.00 | 0.00 | 0.00 | 51 | 1009.7 |
| 20260831144821 | 86 | 224 | 1.0 | 3.0 | 0.00 | 0.00 | 0.00 | 51 | 1009.8 |
| 20260831143822 | 85 | 205 | 2.0 | 3.0 | 0.00 | 0.00 | 0.00 | 53 | 1009.7 |
| 20260831142823 | 84 | 223 | 1.0 | 5.0 | 0.00 | 0.00 | 0.00 | 55 | 1009.8 |
| 20260831141824 | 84 | 183 | 5.0 | 7.0 | 0.00 | 0.00 | 0.00 | 54 | 1009.8 |
| 20260831140823 | 83 | 190 | 5.0 | 6.0 | 0.00 | 0.00 | 0.00 | 56 | 1009.8 |
| 20260831135822 | 82 | 187 | 3.0 | 3.0 | 0.00 | 0.00 | 0.00 | 57 | 1009.8 |
| 20260831134823 | 81 | 219 | 1.0 | 3.0 | 0.00 | 0.00 | 0.00 | 57 | 1009.9 |
| 20260831133824 | 81 | 192 | 3.0 | 6.0 | 0.00 | 0.00 | 0.00 | 57 | 1009.6 |
| 20260831132823 | 80 | 191 | 6.0 | 7.0 | 0.00 | 0.00 | 0.00 | 57 | 1009.7 |
| 20260831131824 | 79 | 190 | 3.0 | 5.0 | 0.00 | 0.00 | 0.00 | 59 | 1009.6 |
| 20260831130823 | 79 | 189 | 3.0 | 5.0 | 0.00 | 0.00 | 0.00 | 59 | 1009.6 |
| 20260831125824 | 78 | 182 | 5.0 | 6.0 | 0.00 | 0.00 | 0.00 | 59 | 1009.5 |
| 20260831124823 | 78 | 185 | 3.0 | 6.0 | 0.00 | 0.00 | 0.00 | 60 | 1009.5 |
| 20260831123824 | 78 | 186 | 2.0 | 5.0 | 0.00 | 0.00 | 0.00 | 60 | 1009.5 |
| 20260831122822 | 78 | 189 | 2.0 | 3.0 | 0.00 | 0.00 | 0.00 | 59 | 1009.4 |
| 20260831121823 | 78 | 175 | 0.0 | 1.0 | 0.00 | 0.00 | 0.00 | 59 | 1009.5 |
| 20260831120824 | 78 | 173 | 1.0 | 2.0 | 0.00 | 0.00 | 0.00 | 58 | 1009.5 |
| 20260831115823 | 78 | 180 | 0.0 | 1.0 | 0.00 | 0.00 | 0.00 | 58 | 1009.2 |
| 20260831114823 | 79 | 186 | 1.0 | 2.0 | 0.00 | 0.00 | 0.00 | 57 | 1008.9 |
| 20260831113822 | 79 | 214 | 0.0 | 2.0 | 0.00 | 0.00 | 0.00 | 57 | 1008.8 |
| 20260831112824 | 79 | 192 | 0.0 | 1.0 | 0.00 | 0.00 | 0.00 | 58 | 1008.8 |
| 20260831111822 | 79 | 206 | 1.0 | 2.0 | 0.00 | 0.00 | 0.00 | 57 | 1008.8 |
| 20260831110823 | 80 | 198 | 0.0 | 3.0 | 0.00 | 0.00 | 0.00 | 57 | 1008.4 |
| 20260831105823 | 80 | 190 | 1.0 | 3.0 | 0.00 | 0.00 | 0.00 | 57 | 1008.3 |
| 20260831104824 | 80 | 210 | 1.0 | 2.0 | 0.00 | 0.00 | 0.00 | 56 | 1008.1 |
| 20260831103823 | 80 | 192 | 0.0 | 2.0 | 0.00 | 0.00 | 0.00 | 56 | 1008.1 |
| 20260831102822 | 81 | 202 | 1.0 | 2.0 | 0.00 | 0.00 | 0.00 | 56 | 1008.1 |
| 20260831101823 | 81 | 207 | 1.0 | 2.0 | 0.00 | 0.00 | 0.00 | 54 | 1008.0 |
| 20260831100823 | 81 | 262 | 0.0 | 1.0 | 0.00 | 0.00 | 0.00 | 54 | 1008.0 |
| 20260831095824 | 82 | 225 | 1.0 | 2.0 | 0.00 | 0.00 | 0.00 | 54 | 1007.6 |
| 20260831094823 | 82 | 219 | 1.0 | 3.0 | 0.00 | 0.00 | 0.00 | 53 | 1007.5 |
| 20260831093824 | 82 | 218 | 1.0 | 3.0 | 0.00 | 0.00 | 0.00 | 53 | 1007.5 |
| 20260831092824 | 82 | 232 | 1.0 | 3.0 | 0.00 | 0.00 | 0.00 | 53 | 1007.4 |
| 20260831091823 | 82 | 207 | 1.0 | 1.0 | 0.00 | 0.00 | 0.00 | 53 | 1007.3 |
| 20260831090823 | 83 | 256 | 0.0 | 1.0 | 0.00 | 0.00 | 0.00 | 52 | 1007.3 |
| 20260831085822 | 83 | 236 | 0.0 | 2.0 | 0.00 | 0.00 | 0.00 | 51 | 1007.2 |
| 20260831084823 | 83 | 213 | 0.0 | 3.0 | 0.00 | 0.00 | 0.00 | 51 | 1006.9 |
| 20260831083824 | 84 | 210 | 0.0 | 3.0 | 0.00 | 0.00 | 0.00 | 50 | 1006.8 |
| 20260831082823 | 84 | 239 | 1.0 | 3.0 | 0.00 | 0.00 | 0.00 | 50 | 1006.8 |
| 20260831081822 | 84 | 211 | 1.0 | 5.0 | 0.00 | 0.00 | 0.00 | 50 | 1006.8 |
| 20260831080823 | 85 | 213 | 2.0 | 6.0 | 0.00 | 0.00 | 0.00 | 49 | 1006.7 |
| 20260831075823 | 85 | 191 | 2.0 | 3.0 | 0.00 | 0.00 | 0.00 | 49 | 1006.7 |
| 20260831074823 | 85 | 195 | 2.0 | 6.0 | 0.00 | 0.00 | 0.00 | 49 | 1006.7 |
| 20260831073823 | 85 | 190 | 2.0 | 10.0 | 0.00 | 0.00 | 0.00 | 49 | 1006.8 |
| 20260831072824 | 85 | 199 | 2.0 | 5.0 | 0.00 | 0.00 | 0.00 | 48 | 1006.8 |
| 20260831071823 | 86 | 190 | 2.0 | 12.0 | 0.00 | 0.00 | 0.00 | 48 | 1006.8 |
| 20260831070824 | 86 | 194 | 2.0 | 5.0 | 0.00 | 0.00 | 0.00 | 48 | 1006.9 |
| 20260831065823 | 86 | 202 | 2.0 | 7.0 | 0.00 | 0.00 | 0.00 | 47 | 1006.9 |
| 20260831064824 | 86 | 199 | 5.0 | 7.0 | 0.00 | 0.00 | 0.00 | 47 | 1007.0 |
| 20260831063824 | 86 | 223 | 2.0 | 9.0 | 0.00 | 0.00 | 0.00 | 48 | 1006.8 |
| 20260831062823 | 86 | 194 | 3.0 | 7.0 | 0.00 | 0.00 | 0.00 | 49 | 1006.8 |
| 20260831061824 | 86 | 188 | 3.0 | 5.0 | 0.00 | 0.00 | 0.00 | 48 | 1006.5 |
| 20260831060822 | 86 | 190 | 5.0 | 7.0 | 0.00 | 0.00 | 0.00 | 48 | 1006.6 |
| 20260831055824 | 86 | 189 | 3.0 | 5.0 | 0.00 | 0.00 | 0.00 | 48 | 1006.5 |
| 20260831054823 | 85 | 191 | 6.0 | 9.0 | 0.00 | 0.00 | 0.00 | 48 | 1006.3 |
| 20260831053822 | 85 | 189 | 6.0 | 9.0 | 0.00 | 0.00 | 0.00 | 48 | 1006.0 |
| 20260831052823 | 86 | 189 | 5.0 | 12.0 | 0.00 | 0.00 | 0.00 | 48 | 1005.9 |
| 20260831051824 | 86 | 194 | 6.0 | 12.0 | 0.00 | 0.00 | 0.00 | 47 | 1005.9 |
| 20260831050823 | 86 | 191 | 2.0 | 7.0 | 0.00 | 0.00 | 0.00 | 47 | 1005.9 |
| 20260831045822 | 87 | 189 | 6.0 | 9.0 | 0.00 | 0.00 | 0.00 | 47 | 1005.9 |
| 20260831044823 | 87 | 193 | 5.0 | 8.0 | 0.00 | 0.00 | 0.00 | 46 | 1005.9 |
| 20260831043823 | 87 | 181 | 5.0 | 9.0 | 0.00 | 0.00 | 0.00 | 46 | 1005.8 |
| 20260831042822 | 87 | 179 | 5.0 | 10.0 | 0.00 | 0.00 | 0.00 | 46 | 1005.9 |